User: anonymous   Login
Location: Knowlton
(51.2333°N, 1.2667°E)
Time: 23:43:49
(UTC+00:00)
Language:

Meteor 2-8 Rocket - Orbit

View from above orbital plane
View from above orbital plane
View from above satellite
View from above satellite

Ground track
Ground track

The orbit data is extracted from the following two-line orbital elements,

1 13114U 82025B   21172.59142588  .00000009  00000-0 -49326-5 0  9991
2 13114  82.5398 116.7155 0014552 359.7680 173.7559 13.84682393983204
Epoch (UTC): 21 June 2021 14:11:39
Eccentricity: 0.0014552
inclination: 82.5398°
perigee height: 936 km
apogee height: 958 km
right ascension of ascending node: 116.7155°
argument of perigee: 359.7680°
revolutions per day: 13.84682393
mean anomaly at epoch: 173.7559°
orbit number at epoch: 98320

The dashed part of the orbit path shows where the satellite is in the earth's shadow,  

DLR